Location: Sobotiste
(48.7170°N, 17.4000°E)
Time: 07:57:19
(UTC+02:00)

YUBILEINY - Pass Details

Date: 21 March 2026
Orbit: 1477 x 1509 km, 82.5° (Epoch: 13 April)

Event Time Altitude Azimuth Distance (km) Brightness Sun altitude
Rises 04:47:53 0° 341° (NNW) 4,616 ? -11.2°
Reaches altitude 10° 04:52:01 10° 323° (NW) 3,628 ? -10.6°
Maximum altitude 04:57:01 17° 288° (WNW) 3,099 ? -9.8°
Drops below altitude 10° 05:01:59 10° 252° (WSW) 3,613 ? -9.0°
Enters shadow 05:02:01 10° 252° (WSW) 3,617 ? -9.0°
